Regional Weather Roundup
Issued by NWS

Home | Current Version | Previous Version | Graphics & Text | Print | Product List | Glossary On
Versions: 1 2 3 4 5 6 7 8 9 10 11 12 13 14 15 16 17 18 19 20 21 22 23 24 25 26 27 28 29 30 31 32 33 34 35 36 37 38 39 40 41 42 43 44 45 46 47 48 49 50
520
ASUS45 KBOI 060810
RWRID

IDAHO REGIONAL WEATHER ROUNDUP
NATIONAL WEATHER SERVICE BOISE ID
100 AM MST SAT FEB 06 2016

NOTE: "FAIR" INDICATES FEW OR NO CLOUDS BELOW 12000 FEET
WITH NO SIGNIFICANT WEATHER AND/OR OBSTRUCTIONS TO VISIBILITY

IDZ012-014-060900-
SOUTHWEST IDAHO


CITY           SKY/WX    TMP DP  RH WIND       PRES   REMARKS
BOISE          MOCLDY    35  28  75 S13       30.41F WCI  26
CALDWELL       MOCLDY    33  28  81 SE15      30.43F WCI  23
MOUNTAIN HOME  MOCLDY    29  29 100 E20       30.43F WCI  16
$$

IDZ016-017-060900-
SOUTHCENTRAL IDAHO


CITY           SKY/WX    TMP DP  RH WIND       PRES   REMARKS
BURLEY         CLEAR     23  20  88 N3        30.44R
JEROME         CLEAR     19  16  88 NE23      30.46R WCI   2
TWIN FALLS     CLEAR     21  19  92 CALM      30.45R
$$

IDZ019>023-060900-
SOUTHEAST IDAHO


CITY           SKY/WX    TMP DP  RH WIND       PRES   REMARKS
IDAHO FALLS    CLOUDY    20  16  84 E3        30.46F
POCATELLO      CLOUDY    15  13  91 NE7       30.47F WCI   5
REXBURG        CLOUDY    19  17  92 CALM      30.45F
$$

IDZ006-010-011-018-031-032-060900-
CENTRAL IDAHO MOUNTAINS


CITY           SKY/WX    TMP DP  RH WIND       PRES   REMARKS
MCCALL         MOCLDY    21  19  92 VRB5      30.33S WCI  15
HAILEY         CLEAR     18  14  86 NW7       30.46S WCI   8
STANLEY          N/A     16  12  84 SE5       30.36F WCI   9
SALMON         CLOUDY    16  12  86 CALM      30.37F
CHALLIS        MOCLDY    16  12  84 SE6       30.36S WCI   7
$$

IDZ002-004-006-007-026-060900-
NORTHERN IDAHO


CITY           SKY/WX    TMP DP  RH WIND       PRES   REMARKS
LEWISTON       CLOUDY    49  31  49 S23G32    30.18F
LOWELL           N/A     37  35  92 CALM      30.31R
COEUR D`ALENE  CLOUDY    43  36  75 SW25      30.06F
MULLAN PASS    MIX PCPN  28  26  92 S9G24     30.05F WCI  19
$$




USA.gov is the U.S. government's official web portal to all federal, state and local government web resources and services.